THOR ALTAIR DEB, 1931

Orbit data source: Space-Track

THOR ALTAIR DEB, 1931 is space debris in SSO originally from a launch on Fri, 10 Sep 1965 UTC launched from the Air Force Western Test Range (AFWTR). Debris objects in space refer to the collection of defunct objects orbiting the Earth. Examples of debris include non-operational satellites, rocket bodies, and fragments generated from explosions, collisions, or faulty payload assembly.

Loading next visibility...
Identifier
1931, 1965-072E
Orbit
SSO
Country
Flag of USUS
Related business
Manufacturer
Unknown
Mission
Spacecraft
Bus & Motor
Unknown
Mass
Unknown
Launch date (UTC)
1965-09-10 (60 years ago)
Launch vehicle
Unknown
Launch site
Air Force Western Test Range (AFWTR)
Object type
Payload
Rocket body
Debris
Shape & HBR
Unknown shape, 0.1 m
Radar Cross Section
Small (<0.1 m²)

Expand to show TLE details & history
Last TLE update: 19 hours ago

TLE from 19 hours ago
0 THOR ALTAIR DEB
1 01931U 65072E   25346.49974522  .00001761  00000-0  46888-3 0  9998
2 01931  99.0274   9.7048 0236160 263.7131  93.7108 14.34754746166079
Epoch: 2025-12-12T11:59Z
TLE epoch observation values (Epoch: 2025-12-12T11:59:37.987Z)
Latitude
-0.00002°
Longitude
108.35604°
Altitude
793.707 km
Speed
7.449 km/s
True Right ascension
00h 38m 49s
True Declination
0° 00' 00"
Sunlit
Object was in daylight at epoch
Visualization orbit readout
Latitude
Unknown
Longitude
Unknown
Altitude
Unknown
Speed
Unknown
Apparent Right ascension
Unknown
Apparent Declination
Unknown
Sunlit
N/A
Visualization observer readout
Local Sidereal Time
05:21:58
Azimuth
Unknown
Elevation
Unknown
Doppler factor
Unknown
Orbital elements
Apogee altitude
941.916 km
Perigee altitude
604.152 km
Semi-major axis
7,151.171 km
Eccentricity
0.02362
Inclination
99.0274°
RAAN
9.7048°
Arg. of periapsis
263.7131°
True anomaly
96.40518°
Mean anomaly
93.7108°
Eccentric anomaly
95.05863°
Mean motion
3.58903 °/min
Orbital period
100.31 mins
BSTAR
0.00046888
Loading maneuver chart data...
Computing Atmospheric mass density...
Loading historical data...
Loading historical data...
Loading historical data...
Loading historical data...
Loading historical data...
Loading historical data...
Loading historical data...

Documentation

Showing up to 5 results
|